Temperature
18 19 19 19 19 19 18 17 17 18 18 19 19 19 20 20 20 20 20 20 20 21 20 20 20 20 20 19 19 19 18 18 18 18 17 17 17 16 16 16 16 16 16 15
18 19 19 19 19 19 19 19 18 18 19 20 20 20 20 20 20 20 20 20 20 21 21 20 20 20 20 19 19 19 19 18 18 18 17 17 17 17 16 16 16 16 15 15
17 18 19 18 19 19 19 19 19 19 19 20 19 20 20 20 20 21 21 21 21 21 21 21 20 20 20 19 19 19 19 18 18 18 17 17 17 17 16 16 16 16 15 15
16 18 18 19 20 20 20 20 20 20 20 20 21 21 22 22 21 21 21 21 21 21 21 21 21 20 20 19 19 19 18 18 18 18 17 17 17 17 16 16 16 16 15 15
16 17 18 19 20 20 20 19 20 20 21 21 22 21 21 22 22 22 22 22 22 22 21 21 21 20 20 19 19 19 18 18 18 18 17 17 17 17 16 16 16 15 15 15
16 17 18 19 20 21 20 19 20 20 20 21 20 18 19 22 22 22 22 22 22 22 21 21 21 20 20 19 19 19 19 19 18 18 18 17 17 17 16 16 16 15 15 15
16 17 17 19 20 21 19 19 20 21 21 21 20 20 22 22 22 22 22 22 22 21 21 21 21 20 20 19 19 19 19 18 18 18 18 17 17 17 16 16 15 15 15 15
15 16 18 19 20 19 19 20 21 21 22 21 21 22 22 22 22 22 22 22 21 21 21 21 20 20 20 20 20 19 19 18 18 18 17 17 17 16 16 16 15 15 15 14
16 17 18 20 20 21 21 21 21 21 22 22 22 22 22 22 22 22 22 22 21 21 21 20 20 20 20 20 19 19 19 18 18 18 17 17 17 16 16 16 15 15 15 15
16 17 18 20 21 21 21 21 21 21 22 22 21 21 21 21 21 21 21 21 21 21 20 20 20 20 20 20 19 19 19 18 18 18 17 17 17 16 16 16 16 15 15 15
16 17 18 19 20 20 21 21 21 21 21 21 21 21 21 21 21 21 21 20 20 20 20 20 20 20 19 19 19 19 19 18 18 18 17 17 17 16 16 16 16 16 15 15
16 17 16 18 20 20 20 20 20 21 21 20 20 20 20 20 20 20 20 20 20 20 20 20 19 19 19 19 19 18 18 18 18 17 17 17 16 16 16 15 15 15 15 14
19 19 19 19 19 20 20 20 20 20 20 20 20 20 20 20 20 20 20 19 19 19 19 19 19 19 19 19 18 18 18 18 17 17 17 17 16 16 16 15 15 15 14 14
19 19 18 18 18 19 19 19 19 19 19 19 19 19 19 19 19 19 19 19 19 19 19 19 19 18 18 18 18 18 18 17 17 17 17 16 16 16 15 15 15 15 14 14
18 18 18 18 18 18 18 18 19 18 18 18 18 18 19 18 18 18 18 18 18 18 18 18 18 18 18 17 17 17 17 17 16 16 16 16 16 15 15 15 14 14 14 13
17 17 17 17 17 17 17 17 17 17 17 17 17 17 17 18 17 17 17 17 18 17 17 17 17 17 17 17 17 17 16 16 16 16 15 15 15 15 14 14 14 14 13 13
16 15 16 16 16 16 16 16 16 16 16 16 16 16 17 17 17 17 17 17 17 17 17 17 16 16 16 16 16 16 16 15 15 15 15 14 14 14 14 14 13 13 13 13
16 16 16 16 15 15 15 15 16 16 16 16 16 16 16 16 16 16 16 16 16 16 16 16 16 16 16 16 15 15 15 15 15 14 14 14 14 13 13 13 13 13 12 12
15 15 15 15 15 15 15 15 15 15 15 15 15 15 15 15 15 15 15 15 15 15 15 15 15 15 15 15 15 15 14 14 14 14 14 13 13 13 12 12 12 12 12 11
14 14 14 14 14 14 14 14 14 14 14 14 14 14 14 14 14 14 14 14 14 14 14 14 14 14 14 14 14 14 13 13 13 13 13 13 12 12 12 11 11 11 11 11
13 13 13 13 13 13 13 13 13 13 13 13 13 13 13 13 13 13 13 13 13 13 13 13 13 13 13 13 13 13 13 12 12 12 12 12 12 11 11 11 10 10 10 10
12 12 12 12 12 12 12 12 12 12 12 12 12 12 12 12 12 12 12 12 12 12 12 12 12 12 12 12 12 12 12 12 11 11 11 11 11 10 10 10 10 9 9 9
11 11 11 11 11 11 11 11 11 11 11 11 12 12 12 11 11 11 11 11 11 11 11 11 11 11 11 11 11 11 11 10 10 10 10 10 10 9 9 9 9 8 8 8
10 10 10 10 10 10 10 10 10 10 10 10 10 10 11 11 10 10 10 10 10 10 10 10 10 10 10 10 10 10 10 9 9 9 9 9 8 8 8 8 8 8 8 7
9 9 9 9 9 9 9 9 9 9 9 9 9 9 9 9 10 10 9 9 9 9 9 9 9 9 9 9 9 9 8 8 8 8 8 8 7 7 7 7 7 7 7 6
8 8 8 9 9 9 9 9 9 8 8 8 8 8 8 9 9 8 8 8 8 8 8 8 8 8 8 8 8 7 7 7 7 7 7 6 6 6 6 6 6 6 6 5
7 7 7 8 8 8 8 8 8 8 8 8 8 8 8 8 8 7 7 7 7 7 7 7 7 7 7 7 6 6 6 6 6 6 6 5 5 5 5 5 5 5 5 4
Wind_Speed
6 6 4 5 6 8 8 8 8 8 8 10 7 7 8 8 9 12 13 13 15 15 14 13 12 11 11 11 10 10 10 9 9 7 7 6 6 6 6 6 7 6 6 5
4 6 5 6 9 10 10 9 8 7 9 9 6 5 6 8 11 13 14 15 15 14 14 14 14 13 12 11 11 11 11 10 8 8 7 7 7 7 7 6 6 6 6 6
4 4 0 5 10 11 8 7 8 9 9 4 3 7 9 11 13 14 15 15 15 15 15 15 15 15 15 13 11 11 11 10 9 9 8 8 8 7 7 6 6 6 5 5
2 1 4 8 6 8 8 6 8 8 7 7 8 9 8 9 12 13 14 14 15 14 13 12 12 12 12 11 12 12 11 10 10 9 9 8 8 8 6 5 6 5 5 5
3 2 5 7 3 5 6 3 5 7 6 4 3 4 1 5 10 13 14 13 13 13 13 12 13 13 13 12 12 12 12 11 11 11 10 9 9 8 6 5 5 4 5 5
3 3 4 6 5 3 6 1 5 3 4 3 5 4 5 5 6 8 8 9 10 10 10 12 12 13 14 13 13 14 13 12 11 11 11 11 10 7 5 5 5 5 5 4
4 4 6 7 5 4 5 6 4 4 4 5 5 7 6 4 4 6 7 8 9 10 11 12 13 14 14 14 15 14 11 11 10 11 11 10 8 6 6 6 6 5 4 3
5 4 7 5 2 5 6 3 1 3 4 5 4 3 3 4 4 5 6 6 8 9 9 9 12 14 14 15 13 10 11 11 10 10 9 9 8 7 7 7 7 5 4 3
7 6 5 3 4 3 5 4 3 3 3 5 4 3 4 4 4 5 6 7 7 8 8 8 10 13 15 12 10 11 11 11 10 9 8 8 9 9 6 6 6 5 5 5
2 2 2 1 3 2 3 3 3 4 4 4 4 4 4 4 3 3 4 5 6 8 8 8 9 10 11 10 11 13 12 11 10 9 8 7 7 8 7 7 7 6 6 6
2 1 2 3 1 3 4 5 5 5 4 4 5 3 4 4 3 4 3 4 6 7 8 8 8 8 8 10 12 12 11 10 9 8 9 8 7 6 8 8 9 9 8 7
5 6 5 3 2 3 5 4 4 4 5 4 3 3 3 3 3 3 4 4 4 5 6 7 8 8 8 10 12 12 10 9 8 8 7 7 6 3 4 5 9 11 10 9
4 4 5 4 2 3 4 4 4 4 4 3 3 2 3 2 2 3 3 4 5 5 6 6 7 7 7 9 11 12 11 10 8 8 8 7 7 7 5 2 3 7 10 11
4 5 4 3 3 3 4 4 5 5 4 3 3 3 3 3 3 3 3 4 4 4 5 5 6 6 7 9 10 10 9 10 9 8 8 8 8 7 7 6 5 4 5 9
2 3 5 4 4 4 4 5 6 5 5 4 4 4 4 3 2 2 2 2 4 4 4 4 5 5 6 8 9 9 8 7 7 7 7 7 6 6 6 7 6 4 3 4
4 5 6 6 5 4 5 5 5 3 3 3 3 3 2 2 2 1 2 3 4 4 4 4 5 5 6 7 7 7 6 9 8 7 6 6 6 6 6 6 6 6 6 6
6 4 4 4 4 3 3 3 2 1 2 2 1 2 3 4 4 3 1 1 2 3 3 4 4 3 5 6 7 6 5 6 9 7 6 7 6 7 7 7 7 7 7 7
5 6 6 6 5 4 2 2 3 2 2 1 2 4 4 3 2 1 1 2 3 3 2 0 2 4 4 5 5 5 5 5 5 6 6 6 6 6 6 6 7 7 5 6
4 4 4 4 4 4 3 2 2 1 2 3 3 3 2 2 2 2 2 4 3 1 2 1 2 3 3 4 5 4 4 4 4 4 5 6 6 5 5 6 6 6 5 5
5 5 4 4 3 4 3 2 2 2 1 2 3 3 3 2 2 2 3 2 1 2 1 1 2 2 2 2 4 3 4 4 4 4 4 4 5 5 5 6 6 6 5 6
5 5 5 4 3 3 2 2 3 2 1 2 3 2 2 1 1 2 3 1 3 1 2 3 2 1 1 2 3 3 3 3 3 4 4 4 4 4 4 5 5 5 5 5
3 4 4 4 4 3 2 2 3 3 2 2 2 2 2 2 1 2 1 1 1 1 2 1 1 1 2 2 2 2 2 2 2 2 3 3 3 4 4 4 4 4 4 4
3 3 3 3 3 2 3 3 2 3 2 2 2 2 2 2 2 2 1 2 0 1 2 1 1 3 4 3 2 2 2 1 1 2 2 2 3 3 3 3 3 3 3 4
3 3 3 3 4 5 3 2 2 2 2 2 2 2 2 2 1 1 1 0 1 3 2 2 4 5 5 3 2 2 1 1 1 1 1 1 1 1 1 2 2 2 2 2
3 3 3 4 4 2 2 2 3 3 4 3 3 3 2 1 1 0 1 1 2 3 2 3 5 5 4 2 2 2 1 1 1 1 1 1 1 1 1 1 1 2 2 2
3 2 2 2 2 2 2 2 2 2 2 3 2 2 2 2 2 2 2 2 2 3 3 2 2 3 2 2 2 2 1 1 2 2 1 0 0 0 1 1 1 1 2 2
3 3 3 2 2 1 2 2 2 2 2 2 1 1 1 2 2 2 2 2 2 2 2 1 1 1 1 2 2 2 1 1 1 1 1 1 1 1 1 1 1 2 2 3
Wind_Direction
228 230 207 221 217 195 195 193 197 229 236 252 239 208 193 179 172 165 169 175 178 179 179 177 176 175 173 172 169 163 159 163 170 169 162 153 147 144 136 131 131 130 122 113
273 252 234 240 233 220 215 208 215 233 255 250 233 190 182 180 174 175 179 183 182 180 179 182 181 179 175 175 171 163 164 170 167 161 157 156 153 146 134 128 126 124 124 122
262 282 23 260 227 214 212 208 193 217 235 230 199 193 191 190 185 187 187 186 184 184 185 186 185 180 179 176 167 164 168 168 167 163 160 161 155 144 142 141 135 130 132 127
219 32 235 248 239 197 199 225 210 218 234 208 201 197 190 185 186 192 191 188 188 186 186 184 178 175 171 165 165 169 172 173 170 165 164 160 154 155 155 149 147 147 148 145
151 209 274 292 277 181 169 245 243 220 233 215 172 101 287 215 193 192 191 189 189 187 184 177 175 171 164 167 169 172 178 179 176 170 166 164 167 168 163 154 154 155 155 155
143 170 236 258 271 200 120 288 280 205 201 187 127 144 240 236 196 189 184 180 179 175 170 173 175 167 166 172 175 184 187 184 176 172 171 174 175 170 164 159 161 155 154 165
167 203 257 260 268 119 139 223 254 195 176 162 168 199 216 192 169 172 169 169 166 164 171 179 171 168 174 178 189 191 181 173 172 175 176 174 169 164 157 153 149 154 160 172
156 183 248 273 109 153 196 218 193 159 152 145 161 166 145 142 144 147 147 151 157 165 175 174 168 171 179 190 189 171 166 168 173 174 175 170 160 161 156 152 153 161 163 177
178 203 240 239 173 175 157 147 149 136 129 124 121 123 125 132 142 152 157 162 162 164 168 169 173 177 185 190 169 161 164 170 171 169 169 163 164 163 159 160 165 174 176 190
141 261 256 107 109 110 118 118 119 116 115 106 113 120 120 130 138 145 155 163 160 158 166 177 181 182 184 171 161 161 168 172 168 168 168 166 167 170 171 176 179 183 188 198
132 236 49 24 71 126 103 90 88 86 91 104 108 112 133 139 151 162 159 161 162 170 179 184 179 177 168 161 160 165 169 172 170 171 171 172 177 184 186 196 192 190 197 192
194 206 164 203 233 122 101 92 96 90 71 61 92 117 130 148 159 158 159 155 157 165 172 175 170 170 167 163 163 164 169 173 174 172 172 172 172 180 212 202 202 200 196 190
180 177 156 156 119 99 106 102 96 93 93 75 61 96 122 134 144 138 140 149 163 169 166 163 163 167 169 164 163 168 174 176 175 174 175 176 176 180 192 227 219 210 208 203
117 115 103 114 122 103 101 97 88 74 66 71 72 79 95 104 109 128 159 176 164 151 153 157 159 171 173 165 165 169 171 175 175 180 180 182 185 187 186 187 200 230 230 218
69 110 138 129 100 87 87 84 77 59 50 45 54 69 88 108 130 169 176 145 130 133 150 158 167 184 170 165 167 169 169 174 177 178 180 181 180 180 185 190 197 205 207 226
114 95 105 109 107 94 87 87 86 63 55 58 58 57 79 111 124 114 110 128 141 167 182 179 191 194 171 165 166 170 177 178 173 175 177 178 179 183 190 195 200 203 211 214
130 131 130 125 123 112 106 111 117 108 79 70 66 70 77 77 69 61 59 122 162 177 181 184 196 179 164 165 166 173 174 179 174 172 182 187 189 194 197 198 204 212 220 213
155 161 161 157 154 140 120 103 97 83 77 74 82 81 85 92 95 86 81 80 73 57 30 213 161 149 153 158 163 165 169 173 178 181 185 190 196 198 197 202 208 214 222 216
129 133 132 135 139 134 125 113 98 80 82 84 87 85 84 91 104 95 88 90 94 72 323 347 111 129 150 161 150 152 160 166 177 184 186 191 195 197 200 204 210 214 213 211
96 99 98 95 99 112 116 110 98 82 78 100 100 90 73 59 86 97 96 102 221 234 232 111 111 117 140 157 143 150 160 169 178 185 187 190 197 205 207 209 210 212 214 214
95 95 94 95 92 95 109 112 103 90 66 97 114 128 134 87 87 109 109 89 310 347 80 87 95 107 128 134 133 146 160 172 179 186 192 195 200 206 210 214 215 215 217 218
92 97 95 96 94 79 66 88 101 102 89 86 93 109 109 95 79 74 93 196 250 77 86 91 93 87 80 92 115 134 153 166 175 178 184 192 198 206 213 216 220 223 222 219
91 101 99 100 112 102 65 64 81 99 103 109 115 122 135 167 167 147 227 286 214 92 85 94 71 72 74 82 95 105 120 139 160 176 186 193 199 204 210 216 220 222 224 227
85 84 87 90 93 90 73 40 50 76 86 85 90 115 122 110 46 335 190 91 57 74 83 80 76 74 73 77 85 85 88 101 133 173 188 192 196 205 212 214 221 226 226 232
93 87 86 87 89 101 110 87 75 68 69 60 43 36 48 101 130 95 67 70 58 61 66 68 68 68 71 81 83 82 79 80 88 98 136 156 185 203 221 222 221 226 230 235
91 86 94 117 135 139 124 108 102 93 90 74 40 31 38 48 65 63 61 54 53 50 54 56 61 63 69 70 66 61 58 46 41 44 44 349 299 275 260 250 247 245 247 247
75 71 72 65 54 76 103 111 119 123 127 125 103 28 45 59 63 61 61 60 56 50 46 47 61 70 70 69 62 55 50 45 41 30 17 4 332 292 276 270 268 263 259 260
Height
1503 1500 1501 1502 1502 1503 1508 1510 1516 1509 1504 1494 1489 1489 1490 1492 1495 1498 1502 1506 1510 1514 1519 1524 1528 1532 1537 1540 1544 1547 1550 1553 1556 1558 1560 1562 1563 1564 1565 1566 1567 1568 1568 1568
1502 1497 1497 1499 1497 1498 1499 1500 1502 1501 1498 1486 1485 1486 1489 1491 1493 1496 1499 1503 1507 1512 1516 1520 1524 1529 1533 1537 1541 1545 1548 1551 1554 1556 1558 1560 1562 1563 1564 1565 1566 1567 1568 1568
1508 1499 1499 1504 1492 1491 1492 1490 1493 1497 1490 1483 1485 1485 1486 1488 1491 1493 1496 1500 1504 1508 1513 1517 1521 1525 1529 1534 1538 1542 1545 1549 1552 1554 1556 1558 1560 1561 1563 1564 1565 1566 1567 1567
1508 1505 1512 1493 1478 1479 1484 1484 1483 1483 1480 1480 1480 1481 1483 1485 1488 1491 1494 1498 1502 1506 1510 1514 1519 1523 1527 1532 1536 1539 1543 1546 1549 1551 1554 1556 1558 1559 1561 1562 1563 1564 1565 1566
1509 1510 1503 1487 1477 1477 1482 1485 1479 1479 1477 1477 1479 1481 1483 1484 1486 1488 1491 1495 1499 1503 1507 1512 1516 1520 1525 1529 1533 1536 1539 1542 1546 1549 1551 1553 1555 1557 1559 1560 1561 1562 1563 1564
1507 1507 1507 1489 1474 1473 1479 1488 1478 1476 1475 1476 1479 1487 1485 1483 1484 1487 1490 1493 1497 1501 1505 1509 1513 1518 1522 1525 1529 1532 1535 1539 1543 1546 1549 1551 1553 1555 1557 1558 1559 1560 1561 1562
1503 1504 1496 1478 1472 1474 1491 1488 1476 1474 1474 1475 1477 1480 1480 1481 1483 1485 1488 1491 1495 1499 1503 1506 1510 1515 1518 1522 1525 1529 1533 1537 1540 1543 1546 1548 1550 1552 1554 1556 1557 1558 1559 1559
1500 1503 1497 1473 1472 1477 1478 1474 1473 1473 1473 1474 1476 1478 1479 1480 1482 1484 1487 1490 1493 1497 1500 1504 1508 1511 1514 1518 1522 1526 1530 1533 1537 1540 1543 1545 1547 1549 1551 1552 1554 1555 1556 1556
1486 1486 1475 1471 1471 1472 1472 1473 1473 1473 1474 1475 1476 1477 1478 1480 1482 1484 1486 1489 1492 1495 1498 1501 1505 1508 1511 1515 1519 1523 1527 1530 1533 1536 1539 1542 1544 1546 1547 1549 1550 1551 1552 1553
1478 1476 1473 1472 1472 1473 1473 1473 1473 1474 1475 1476 1476 1477 1478 1480 1482 1484 1486 1488 1490 1493 1496 1499 1502 1505 1509 1513 1517 1520 1523 1527 1530 1533 1535 1538 1540 1542 1544 1545 1546 1547 1548 1549
1477 1474 1473 1473 1473 1473 1474 1474 1474 1475 1476 1476 1477 1477 1478 1480 1481 1483 1485 1487 1489 1491 1493 1496 1500 1503 1507 1510 1514 1517 1520 1523 1526 1529 1531 1534 1536 1538 1540 1541 1543 1544 1545 1546
1475 1471 1472 1473 1473 1473 1474 1474 1475 1475 1476 1477 1477 1478 1478 1479 1480 1482 1483 1485 1487 1489 1492 1495 1498 1501 1504 1507 1510 1514 1517 1519 1522 1525 1527 1530 1532 1534 1536 1538 1539 1540 1542 1542
1466 1468 1469 1471 1473 1473 1474 1474 1475 1475 1476 1477 1477 1478 1478 1479 1480 1481 1483 1484 1486 1487 1490 1493 1495 1498 1501 1505 1507 1510 1513 1515 1518 1521 1523 1525 1527 1529 1531 1533 1534 1536 1537 1538
1464 1466 1469 1470 1472 1473 1473 1474 1475 1475 1476 1477 1477 1477 1477 1478 1479 1480 1482 1483 1485 1487 1489 1491 1493 1496 1499 1502 1504 1507 1509 1512 1514 1516 1519 1521 1523 1525 1526 1528 1529 1530 1532 1533
1465 1466 1467 1469 1471 1472 1473 1473 1474 1475 1475 1476 1476 1476 1477 1477 1478 1479 1481 1482 1484 1485 1487 1489 1491 1494 1497 1499 1501 1503 1505 1508 1510 1512 1515 1517 1518 1520 1521 1523 1524 1525 1527 1528
1464 1466 1467 1468 1470 1471 1472 1472 1473 1474 1475 1475 1475 1476 1477 1477 1478 1479 1480 1481 1482 1483 1485 1487 1489 1491 1494 1496 1498 1500 1502 1504 1506 1508 1510 1512 1513 1515 1516 1517 1518 1520 1521 1522
1462 1464 1466 1467 1468 1469 1471 1472 1472 1473 1474 1474 1475 1475 1476 1476 1477 1478 1479 1480 1481 1482 1484 1485 1487 1489 1490 1492 1494 1496 1498 1500 1501 1503 1505 1507 1508 1510 1511 1512 1513 1514 1515 1517
1460 1462 1463 1465 1466 1468 1469 1470 1471 1472 1472 1473 1474 1474 1475 1475 1476 1476 1477 1478 1479 1480 1481 1483 1484 1485 1487 1489 1491 1492 1494 1495 1497 1498 1500 1502 1503 1505 1506 1507 1507 1508 1509 1511
1459 1460 1462 1464 1465 1466 1468 1469 1470 1471 1471 1472 1473 1473 1474 1474 1475 1475 1476 1476 1477 1477 1478 1480 1481 1482 1484 1485 1487 1488 1490 1491 1493 1494 1495 1497 1498 1499 1500 1501 1502 1503 1504 1505
1457 1459 1461 1462 1464 1465 1466 1467 1468 1469 1470 1471 1471 1472 1472 1473 1473 1474 1474 1474 1475 1476 1476 1477 1478 1479 1481 1482 1483 1484 1486 1487 1488 1489 1490 1491 1492 1494 1495 1496 1496 1497 1498 1498
1455 1457 1459 1460 1462 1464 1465 1466 1467 1467 1468 1469 1470 1470 1470 1471 1472 1472 1472 1472 1473 1474 1474 1475 1476 1476 1477 1478 1480 1481 1482 1483 1484 1484 1485 1486 1487 1488 1489 1490 1490 1491 1492 1492
1454 1456 1457 1459 1461 1462 1463 1464 1465 1465 1466 1467 1468 1468 1469 1469 1470 1470 1470 1471 1471 1472 1472 1473 1473 1474 1475 1475 1476 1477 1477 1478 1479 1480 1481 1481 1482 1483 1483 1484 1485 1485 1486 1486
1454 1455 1457 1458 1459 1461 1462 1463 1463 1464 1464 1465 1466 1466 1467 1467 1468 1468 1468 1469 1469 1470 1470 1470 1471 1472 1472 1472 1473 1473 1474 1474 1475 1476 1476 1477 1478 1478 1479 1479 1479 1480 1480 1480
1453 1455 1456 1457 1458 1459 1460 1461 1462 1463 1463 1464 1464 1465 1465 1465 1466 1466 1467 1467 1468 1468 1468 1468 1469 1469 1469 1470 1470 1470 1471 1471 1472 1472 1473 1473 1473 1474 1474 1474 1474 1474 1474 1474
1453 1454 1455 1456 1457 1458 1459 1460 1460 1461 1462 1462 1463 1463 1464 1464 1464 1464 1465 1466 1466 1466 1466 1466 1467 1467 1467 1467 1467 1468 1468 1468 1469 1469 1469 1469 1469 1469 1469 1469 1469 1469 1468 1468
1452 1453 1454 1455 1456 1457 1458 1459 1459 1460 1460 1461 1462 1462 1462 1463 1463 1463 1464 1464 1464 1465 1464 1464 1464 1465 1465 1465 1465 1465 1465 1465 1465 1465 1465 1465 1465 1465 1465 1464 1464 1464 1463 1462
1452 1453 1454 1455 1456 1456 1457 1458 1458 1459 1460 1460 1461 1461 1461 1462 1462 1462 1462 1462 1463 1463 1463 1463 1463 1463 1463 1463 1463 1463 1462 1462 1462 1462 1462 1461 1461 1460 1460 1459 1459 1458 1458 1457